TimeEDT,TemperatureF,Dew PointF,Humidity,Sea Level PressureIn,VisibilityMPH,Wind Direction,Wind SpeedMPH,Gust SpeedMPH,PrecipitationIn,Events,Conditions,WindDirDegrees,DateUTC
12:32 AM,55.4,51.8,88,30.05,9.0,NNE,16.1,23.0,N/A,,Mostly Cloudy,30,2013-05-05 04:32:00
12:41 AM,55.4,51.8,88,30.05,9.0,NE,13.8,23.0,N/A,,Scattered Clouds,40,2013-05-05 04:41:00
12:56 AM,55.0,51.1,86,30.06,9.0,NE,10.4,-,N/A,,Scattered Clouds,40,2013-05-05 04:56:00
1:12 AM,55.4,51.8,88,30.05,9.0,NE,9.2,18.4,N/A,,Mostly Cloudy,40,2013-05-05 05:12:00
1:56 AM,55.0,51.1,86,30.06,9.0,NE,10.4,-,N/A,,Overcast,40,2013-05-05 05:56:00
2:40 AM,55.4,51.8,88,30.02,9.0,NNE,8.1,-,N/A,,Overcast,30,2013-05-05 06:40:00
2:56 AM,54.0,51.1,90,30.02,5.0,NNE,11.5,17.3,N/A,,Overcast,30,2013-05-05 06:56:00
3:34 AM,53.6,51.8,94,30.01,8.0,NNE,10.4,-,N/A,,Overcast,30,2013-05-05 07:34:00
3:56 AM,54.0,51.1,90,30.01,8.0,NNE,8.1,-,N/A,,Overcast,20,2013-05-05 07:56:00
4:56 AM,54.0,52.0,93,30.01,8.0,NE,9.2,-,N/A,,Overcast,40,2013-05-05 08:56:00
5:09 AM,55.4,51.8,88,30.01,8.0,NE,6.9,-,N/A,,Overcast,50,2013-05-05 09:09:00
5:56 AM,55.0,53.1,93,30.02,8.0,NE,5.8,-,N/A,,Overcast,40,2013-05-05 09:56:00
6:56 AM,55.0,53.1,93,30.02,6.0,NE,12.7,-,N/A,,Overcast,40,2013-05-05 10:56:00
7:56 AM,57.0,54.0,89,30.03,6.0,NE,11.5,-,N/A,,Overcast,50,2013-05-05 11:56:00
8:56 AM,59.0,55.0,87,30.04,7.0,ENE,10.4,-,N/A,,Overcast,60,2013-05-05 12:56:00
9:24 AM,62.6,55.4,77,30.03,8.0,ENE,13.8,-,N/A,,Overcast,60,2013-05-05 13:24:00
9:56 AM,63.0,57.0,81,30.04,9.0,ENE,11.5,-,N/A,,Mostly Cloudy,60,2013-05-05 13:56:00
10:56 AM,66.0,59.0,78,30.04,9.0,NE,13.8,-,N/A,,Mostly Cloudy,50,2013-05-05 14:56:00
11:09 AM,66.2,59.0,78,30.03,10.0,ENE,11.5,-,N/A,,Mostly Cloudy,60,2013-05-05 15:09:00
11:35 AM,68.0,60.8,78,30.02,10.0,ENE,17.3,20.7,N/A,,Scattered Clouds,60,2013-05-05 15:35:00
11:56 AM,69.1,60.1,73,30.02,10.0,ENE,13.8,-,N/A,,Scattered Clouds,60,2013-05-05 15:56:00
12:19 PM,69.8,60.8,73,30.01,10.0,ENE,16.1,-,N/A,,Mostly Cloudy,60,2013-05-05 16:19:00
12:56 PM,71.1,61.0,70,30.01,10.0,ENE,18.4,-,N/A,,Mostly Cloudy,60,2013-05-05 16:56:00
1:56 PM,71.1,61.0,70,30.01,10.0,East,12.7,-,N/A,,Mostly Cloudy,80,2013-05-05 17:56:00
2:56 PM,70.0,61.0,73,30.01,10.0,East,9.2,-,N/A,,Mostly Cloudy,90,2013-05-05 18:56:00
3:56 PM,69.1,62.1,78,29.99,10.0,East,12.7,-,N/A,,Mostly Cloudy,80,2013-05-05 19:56:00
4:56 PM,69.1,62.1,78,29.99,10.0,ENE,13.8,-,N/A,,Mostly Cloudy,70,2013-05-05 20:56:00
5:56 PM,68.0,62.1,81,29.99,10.0,ENE,12.7,-,N/A,,Overcast,70,2013-05-05 21:56:00
6:56 PM,66.9,62.1,84,29.98,9.0,ENE,12.7,-,N/A,,Mostly Cloudy,70,2013-05-05 22:56:00
7:56 PM,64.0,61.0,90,29.99,9.0,ENE,15.0,-,N/A,,Partly Cloudy,60,2013-05-05 23:56:00
8:56 PM,63.0,60.1,90,29.99,10.0,ENE,15.0,21.9,N/A,,Scattered Clouds,70,2013-05-06 00:56:00
9:08 PM,62.6,60.8,94,29.98,10.0,ENE,17.3,24.2,N/A,,Mostly Cloudy,70,2013-05-06 01:08:00
9:56 PM,63.0,60.1,90,30.00,9.0,ENE,15.0,-,N/A,,Mostly Cloudy,60,2013-05-06 01:56:00
10:09 PM,62.6,60.8,94,29.99,9.0,ENE,12.7,-,N/A,,Overcast,70,2013-05-06 02:09:00
10:56 PM,63.0,60.1,90,30.00,9.0,ENE,11.5,-,N/A,,Overcast,60,2013-05-06 02:56:00
11:56 PM,63.0,60.1,90,29.99,9.0,ENE,10.4,-,N/A,,Overcast,70,2013-05-06 03:56:00